| time (UTC) | temp F | wind direction | speed knots | gust knots | rain 1hr in | rain 24hr in | rain mn in | humidity % | barometer mb |
| 20260505012049 | 53 | 108 | 5.2 | 8.7 | 0.00 | 0.00 | 0.00 | 65 | 989.9 |
| 20260505011549 | 54 | 98 | 5.2 | 8.7 | 0.00 | 0.00 | 0.00 | 65 | 989.9 |
| 20260505011050 | 53 | 100 | 5.2 | 8.7 | 0.00 | 0.00 | 0.00 | 65 | 989.9 |
| 20260505010552 | 54 | 127 | 5.2 | 7.8 | 0.00 | 0.00 | 0.00 | 65 | 989.9 |
| 20260505005548 | 54 | 106 | 6.1 | 7.8 | 0.00 | 0.00 | 0.00 | 65 | 989.9 |
| 20260505005049 | 54 | 96 | 5.2 | 8.7 | 0.00 | 0.00 | 0.00 | 65 | 989.8 |
| 20260505004547 | 54 | 111 | 5.2 | 8.7 | 0.00 | 0.00 | 0.00 | 65 | 989.8 |
| 20260505004047 | 54 | 117 | 5.2 | 7.8 | 0.00 | 0.00 | 0.00 | 64 | 989.7 |
| 20260505003547 | 54 | 94 | 5.2 | 7.0 | 0.00 | 0.00 | 0.00 | 64 | 989.8 |
| 20260505003047 | 54 | 113 | 6.1 | 7.8 | 0.00 | 0.00 | 0.00 | 64 | 989.8 |
| 20260505002548 | 54 | 115 | 6.1 | 8.7 | 0.00 | 0.00 | 0.00 | 64 | 989.8 |
| 20260505002047 | 54 | 110 | 5.2 | 7.8 | 0.00 | 0.00 | 0.00 | 64 | 989.8 |
| 20260505001546 | 54 | 105 | 5.2 | 7.8 | 0.00 | 0.00 | 0.00 | 64 | 989.8 |
| 20260505001045 | 54 | 107 | 5.2 | 7.8 | 0.00 | 0.00 | 0.00 | 63 | 989.9 |
| 20260505000545 | 54 | 105 | 5.2 | 7.0 | 0.00 | 0.00 | 0.00 | 63 | 989.9 |
| 20260505000045 | 54 | 95 | 4.3 | 7.8 | 0.00 | 0.00 | 0.00 | 63 | 989.9 |
| 20260504235545 | 54 | 117 | 3.5 | 6.1 | 0.00 | 0.00 | 0.00 | 63 | 990.0 |
| 20260504235044 | 54 | 118 | 3.5 | 4.3 | 0.00 | 0.00 | 0.00 | 63 | 990.0 |
| 20260504234044 | 55 | 131 | 4.3 | 7.0 | 0.00 | 0.00 | 0.00 | 62 | 990.0 |
| 20260504233044 | 55 | 105 | 4.3 | 5.2 | 0.00 | 0.00 | 0.00 | 61 | 990.1 |
| 20260504232544 | 55 | 112 | 3.5 | 5.2 | 0.00 | 0.00 | 0.00 | 60 | 990.0 |
| 20260504232044 | 55 | 98 | 3.5 | 5.2 | 0.00 | 0.00 | 0.00 | 60 | 990.1 |
| 20260504231542 | 55 | 118 | 2.6 | 4.3 | 0.00 | 0.00 | 0.00 | 60 | 990.0 |
| 20260504231047 | 55 | 115 | 2.6 | 4.3 | 0.00 | 0.00 | 0.00 | 59 | 990.1 |
| 20260504230542 | 55 | 104 | 2.6 | 5.2 | 0.00 | 0.00 | 0.00 | 58 | 990.2 |
| 20260504230042 | 56 | 103 | 2.6 | 4.3 | 0.00 | 0.00 | 0.00 | 58 | 990.1 |
| 20260504225541 | 56 | 91 | 2.6 | 4.3 | 0.00 | 0.00 | 0.00 | 56 | 990.0 |
| 20260504225041 | 56 | 97 | 2.6 | 5.2 | 0.00 | 0.00 | 0.00 | 56 | 990.2 |
| 20260504224546 | 56 | 106 | 2.6 | 4.3 | 0.00 | 0.00 | 0.00 | 55 | 990.2 |
| 20260504224040 | 56 | 110 | 2.6 | 4.3 | 0.00 | 0.00 | 0.00 | 55 | 990.2 |
| 20260504223541 | 56 | 107 | 2.6 | 4.3 | 0.00 | 0.00 | 0.00 | 55 | 990.2 |
| 20260504223040 | 56 | 91 | 2.6 | 4.3 | 0.00 | 0.00 | 0.00 | 55 | 990.1 |
| 20260504222541 | 56 | 99 | 2.6 | 4.3 | 0.00 | 0.00 | 0.00 | 56 | 990.2 |
| 20260504222040 | 56 | 101 | 3.5 | 4.3 | 0.00 | 0.00 | 0.00 | 55 | 990.2 |
| 20260504221540 | 57 | 100 | 2.6 | 4.3 | 0.00 | 0.00 | 0.00 | 55 | 990.2 |
| 20260504221039 | 57 | 103 | 2.6 | 3.5 | 0.00 | 0.00 | 0.00 | 55 | 990.3 |
| 20260504220038 | 57 | 101 | 2.6 | 3.5 | 0.00 | 0.00 | 0.00 | 54 | 990.4 |
| 20260504215538 | 57 | 102 | 3.5 | 4.3 | 0.00 | 0.00 | 0.00 | 54 | 990.4 |
| 20260504214537 | 58 | 102 | 2.6 | 3.5 | 0.00 | 0.00 | 0.00 | 52 | 990.5 |
| 20260504214037 | 58 | 94 | 2.6 | 3.5 | 0.00 | 0.00 | 0.00 | 51 | 990.4 |
| 20260504213540 | 58 | 103 | 2.6 | 3.5 | 0.00 | 0.00 | 0.00 | 51 | 990.3 |
| 20260504212536 | 59 | 95 | 2.6 | 2.6 | 0.00 | 0.00 | 0.00 | 50 | 990.4 |
| 20260504210538 | 59 | 103 | 1.7 | 2.6 | 0.00 | 0.00 | 0.00 | 49 | 990.2 |
| 20260504210035 | 60 | 96 | 1.7 | 2.6 | 0.00 | 0.00 | 0.00 | 49 | 990.3 |
| 20260504205535 | 60 | 101 | 1.7 | 2.6 | 0.00 | 0.00 | 0.00 | 49 | 990.2 |
| 20260504205034 | 60 | 103 | 2.6 | 3.5 | 0.00 | 0.00 | 0.00 | 48 | 990.3 |
| 20260504204035 | 61 | 90 | 2.6 | 3.5 | 0.00 | 0.00 | 0.00 | 47 | 990.2 |
| 20260504203533 | 61 | 86 | 2.6 | 3.5 | 0.00 | 0.00 | 0.00 | 47 | 990.2 |
| 20260504203033 | 62 | 90 | 2.6 | 2.6 | 0.00 | 0.00 | 0.00 | 45 | 990.1 |
| 20260504202538 | 63 | 103 | 2.6 | 3.5 | 0.00 | 0.00 | 0.00 | 45 | 990.1 |
| 20260504202035 | 63 | 113 | 2.6 | 3.5 | 0.00 | 0.00 | 0.00 | 44 | 990.1 |
| 20260504201533 | 64 | 107 | 2.6 | 3.5 | 0.00 | 0.00 | 0.00 | 43 | 990.1 |
| 20260504201033 | 64 | 114 | 2.6 | 2.6 | 0.00 | 0.00 | 0.00 | 42 | 990.1 |
| 20260504200532 | 64 | 115 | 1.7 | 2.6 | 0.00 | 0.00 | 0.00 | 43 | 990.1 |
| 20260504200032 | 64 | 117 | 1.7 | 2.6 | 0.00 | 0.00 | 0.00 | 42 | 990.1 |
| 20260504195531 | 64 | 125 | 0.9 | 1.7 | 0.00 | 0.00 | 0.00 | 42 | 990.1 |
| 20260504195031 | 64 | 125 | 0.9 | 0.9 | 0.00 | 0.00 | 0.00 | 42 | 990.1 |
| 20260504194532 | 64 | 113 | 0.0 | 0.9 | 0.00 | 0.00 | 0.00 | 41 | 990.2 |
| 20260504193530 | 65 | 106 | 0.0 | 0.9 | 0.00 | 0.00 | 0.00 | 40 | 990.1 |
| 20260504193031 | 65 | 106 | 0.0 | 0.9 | 0.00 | 0.00 | 0.00 | 39 | 990.1 |
| 20260504192529 | 66 | 73 | 0.0 | 0.9 | 0.00 | 0.00 | 0.00 | 39 | 990.3 |
| 20260504191529 | 66 | 73 | 0.0 | 0.9 | 0.00 | 0.00 | 0.00 | 38 | 990.2 |
| 20260504191030 | 67 | 73 | 0.0 | 0.0 | 0.00 | 0.00 | 0.00 | 37 | 990.2 |
| 20260504190531 | 67 | 73 | 0.9 | 0.0 | 0.00 | 0.00 | 0.00 | 37 | 990.3 |
| 20260504190030 | 66 | 73 | 1.7 | 2.6 | 0.00 | 0.00 | 0.00 | 39 | 990.4 |
| 20260504184527 | 66 | 145 | 0.9 | 0.9 | 0.00 | 0.00 | 0.00 | 41 | 990.1 |
| 20260504183030 | 66 | 145 | 0.9 | 0.9 | 0.00 | 0.00 | 0.00 | 44 | 990.1 |
| 20260504182029 | 66 | 211 | 0.0 | 0.0 | 0.00 | 0.00 | 0.00 | 44 | 990.0 |
| 20260504181528 | 66 | 299 | 0.0 | 0.0 | 0.00 | 0.00 | 0.00 | 41 | 990.0 |
| 20260504180026 | 69 | 299 | 0.0 | 0.0 | 0.00 | 0.00 | 0.00 | 38 | 990.0 |
| 20260504174527 | 71 | 299 | 0.0 | 0.9 | 0.00 | 0.00 | 0.00 | 35 | 989.8 |
| 20260504174025 | 71 | 299 | 0.9 | 0.9 | 0.00 | 0.00 | 0.00 | 35 | 989.7 |
| 20260504173526 | 72 | 299 | 0.9 | 0.9 | 0.00 | 0.00 | 0.00 | 33 | 989.7 |
| 20260504170524 | 73 | 299 | 0.9 | 0.9 | 0.00 | 0.00 | 0.00 | 34 | 989.6 |
| 20260504151016 | 75 | 294 | 3.5 | 8.7 | 0.00 | 0.00 | 0.00 | 30 | 990.0 |
| 20260504150516 | 75 | 303 | 4.3 | 6.1 | 0.00 | 0.00 | 0.00 | 30 | 990.0 |
| 20260504140401 | 75 | 326 | 3.5 | 6.1 | 0.00 | 0.00 | 0.00 | 32 | 990.7 |
| 20260504110353 | 71 | 331 | 6.1 | 12.2 | 0.00 | 0.00 | 0.00 | 37 | 992.4 |
| 20260504081841 | 66 | 314 | 1.7 | 4.3 | 0.00 | 0.00 | 0.00 | 47 | 993.8 |
| 20260504081344 | 65 | 232 | 1.7 | 5.2 | 0.00 | 0.00 | 0.00 | 49 | 993.9 |
| 20260504080841 | 64 | 64 | 1.7 | 2.6 | 0.00 | 0.00 | 0.00 | 53 | 993.9 |
| 20260504080341 | 64 | 114 | 2.6 | 5.2 | 0.00 | 0.00 | 0.00 | 51 | 993.8 |
| 20260504070338 | 58 | 80 | 6.1 | 7.8 | 0.00 | 0.00 | 0.00 | 61 | 993.8 |
| 20260504050329 | 50 | 108 | 7.0 | 10.4 | 0.00 | 0.00 | 0.00 | 74 | 993.7 |
| 20260504045829 | 49 | 85 | 7.0 | 10.4 | 0.00 | 0.00 | 0.00 | 74 | 993.7 |
| 20260504045330 | 49 | 103 | 7.0 | 11.3 | 0.00 | 0.00 | 0.00 | 74 | 993.6 |
| 20260504044829 | 49 | 94 | 6.1 | 10.4 | 0.00 | 0.00 | 0.00 | 74 | 993.4 |
| 20260504044328 | 49 | 96 | 6.1 | 7.8 | 0.00 | 0.00 | 0.00 | 74 | 993.4 |
| 20260504042829 | 49 | 115 | 5.2 | 9.6 | 0.00 | 0.00 | 0.00 | 74 | 993.4 |
| 20260504042327 | 49 | 117 | 4.3 | 8.7 | 0.00 | 0.00 | 0.00 | 75 | 993.4 |
| 20260504041828 | 49 | 73 | 4.3 | 7.8 | 0.00 | 0.00 | 0.00 | 75 | 993.3 |
| 20260504041328 | 48 | 74 | 4.3 | 6.1 | 0.00 | 0.00 | 0.00 | 75 | 993.2 |
| 20260504040826 | 48 | 125 | 4.3 | 5.2 | 0.00 | 0.00 | 0.00 | 75 | 993.2 |
| 20260504035826 | 48 | 153 | 4.3 | 7.8 | 0.00 | 0.00 | 0.00 | 75 | 993.3 |
| 20260504035325 | 48 | 105 | 3.5 | 7.8 | 0.00 | 0.00 | 0.00 | 76 | 993.3 |
| 20260504034826 | 48 | 124 | 3.5 | 5.2 | 0.00 | 0.00 | 0.00 | 76 | 993.1 |
| 20260504034326 | 48 | 114 | 5.2 | 7.8 | 0.00 | 0.00 | 0.00 | 76 | 993.2 |
| 20260504033826 | 47 | 117 | 5.2 | 8.7 | 0.00 | 0.00 | 0.00 | 77 | 993.1 |
| 20260504033324 | 47 | 122 | 6.1 | 9.6 | 0.00 | 0.00 | 0.00 | 77 | 992.9 |
| 20260504032825 | 47 | 105 | 6.1 | 8.7 | 0.00 | 0.00 | 0.00 | 77 | 992.8 |
| 20260504032325 | 47 | 91 | 7.0 | 9.6 | 0.00 | 0.00 | 0.00 | 78 | 993.0 |
| 20260504031823 | 47 | 86 | 6.1 | 10.4 | 0.00 | 0.00 | 0.00 | 78 | 992.9 |
| 20260504031324 | 47 | 113 | 7.0 | 9.6 | 0.00 | 0.00 | 0.00 | 78 | 993.0 |
| 20260504030823 | 47 | 98 | 7.0 | 10.4 | 0.00 | 0.00 | 0.00 | 78 | 993.0 |
| 20260504030324 | 47 | 101 | 6.1 | 9.6 | 0.00 | 0.00 | 0.00 | 78 | 993.0 |
| 20260504025824 | 47 | 94 | 6.1 | 9.6 | 0.00 | 0.00 | 0.00 | 77 | 992.9 |
| 20260504024823 | 47 | 101 | 6.1 | 10.4 | 0.00 | 0.00 | 0.00 | 77 | 992.9 |
| 20260504023821 | 47 | 131 | 5.2 | 7.8 | 0.00 | 0.00 | 0.00 | 77 | 992.9 |
| 20260504022821 | 47 | 100 | 3.5 | 7.0 | 0.00 | 0.00 | 0.00 | 77 | 993.1 |
| 20260504021821 | 48 | 102 | 1.7 | 3.5 | 0.00 | 0.00 | 0.00 | 76 | 993.0 |
| 20260504021321 | 48 | 96 | 0.9 | 2.6 | 0.00 | 0.00 | 0.00 | 76 | 993.1 |
| 20260504020821 | 48 | 114 | 1.7 | 2.6 | 0.00 | 0.00 | 0.00 | 76 | 993.0 |
| 20260504020319 | 48 | 116 | 1.7 | 6.1 | 0.00 | 0.00 | 0.00 | 75 | 993.1 |
| 20260504015819 | 48 | 116 | 0.9 | 1.7 | 0.00 | 0.00 | 0.00 | 75 | 993.0 |
| 20260504015319 | 48 | 117 | 0.0 | 0.9 | 0.00 | 0.00 | 0.00 | 75 | 993.1 |
| 20260504014818 | 48 | 123 | 0.9 | 0.9 | 0.00 | 0.00 | 0.00 | 75 | 993.1 |
| 20260504014318 | 48 | 122 | 0.9 | 2.6 | 0.00 | 0.00 | 0.00 | 75 | 993.1 |
| 20260504013821 | 48 | 91 | 1.7 | 3.5 | 0.00 | 0.00 | 0.00 | 75 | 993.1 |
| 20260504013318 | 49 | 132 | 1.7 | 2.6 | 0.00 | 0.00 | 0.00 | 74 | 993.1 |
| 20260504012317 | 49 | 115 | 1.7 | 3.5 | 0.00 | 0.00 | 0.00 | 73 | 993.1 |